Time,TemperatureF,DewpointF,PressureIn,WindDirection,WindDirectionDegrees,WindSpeedMPH,WindSpeedGustMPH,Humidity,HourlyPrecipIn,Conditions,Clouds,dailyrainin,SolarRadiationWatts/m^2,SoftwareType,DateUTC
2013-01-08 00:00:00,33.4,26.4,30.38,NE,52,1.0,2.0,75,0.00,,,0.00,0.0,meteohub,2013-01-08 05:00:00,
2013-01-08 00:01:00,33.4,26.4,30.38,NE,52,2.0,2.0,75,0.00,,,0.00,0.0,meteohub,2013-01-08 05:01:00,
2013-01-08 00:02:00,33.3,25.9,30.38,NE,52,2.0,2.0,74,0.00,,,0.00,0.0,meteohub,2013-01-08 05:02:00,
2013-01-08 00:03:00,33.1,26.1,30.38,NE,51,3.0,3.0,75,0.00,,,0.00,0.0,meteohub,2013-01-08 05:03:00,
2013-01-08 00:08:00,32.4,25.7,30.38,NE,48,1.0,3.0,76,0.00,,,0.00,0.0,meteohub,2013-01-08 05:08:00,
2013-01-08 00:13:00,32.0,25.7,30.38,NE,48,1.0,3.0,77,0.00,,,0.00,0.0,meteohub,2013-01-08 05:13:00,
2013-01-08 00:18:00,32.2,26.1,30.38,NE,48,1.0,3.0,78,0.00,,,0.00,0.0,meteohub,2013-01-08 05:18:00,
2013-01-08 00:23:00,32.7,26.2,30.38,NE,48,1.0,3.0,77,0.00,,,0.00,0.0,meteohub,2013-01-08 05:23:00,
2013-01-08 00:28:00,32.7,26.6,30.38,NE,48,1.0,2.0,78,0.00,,,0.00,0.0,meteohub,2013-01-08 05:28:00,
2013-01-08 00:33:00,32.5,26.1,30.38,NE,48,3.0,3.0,77,0.00,,,0.00,0.0,meteohub,2013-01-08 05:33:00,
2013-01-08 00:39:00,32.2,26.1,30.38,NE,48,1.0,3.0,78,0.00,,,0.00,0.0,meteohub,2013-01-08 05:39:00,
2013-01-08 00:44:00,32.4,26.2,30.38,NE,48,0.0,3.0,78,0.00,,,0.00,0.0,meteohub,2013-01-08 05:44:00,
2013-01-08 00:49:00,32.9,26.8,30.38,NE,48,0.0,3.0,78,0.00,,,0.00,0.0,meteohub,2013-01-08 05:49:00,
2013-01-08 00:54:00,33.3,27.1,30.38,NE,48,1.0,2.0,78,0.00,,,0.00,0.0,meteohub,2013-01-08 05:54:00,
2013-01-08 00:59:00,33.3,27.5,30.38,NE,48,1.0,2.0,79,0.00,,,0.00,0.0,meteohub,2013-01-08 05:59:00,
2013-01-08 01:04:00,33.3,27.5,30.38,NE,48,0.0,2.0,79,0.00,,,0.00,0.0,meteohub,2013-01-08 06:04:00,
2013-01-08 01:09:00,33.3,27.5,30.37,NE,48,1.0,2.0,79,0.00,,,0.00,0.0,meteohub,2013-01-08 06:09:00,
2013-01-08 01:14:00,33.4,27.7,30.37,NE,48,0.0,2.0,79,0.00,,,0.00,0.0,meteohub,2013-01-08 06:14:00,
2013-01-08 01:19:00,33.4,27.7,30.37,NE,48,0.0,2.0,79,0.00,,,0.00,0.0,meteohub,2013-01-08 06:19:00,
2013-01-08 01:24:00,33.1,27.3,30.37,NE,48,0.0,2.0,79,0.00,,,0.00,0.0,meteohub,2013-01-08 06:24:00,
2013-01-08 01:29:00,33.1,27.5,30.38,NE,48,0.0,2.0,80,0.00,,,0.00,0.0,meteohub,2013-01-08 06:29:00,
2013-01-08 01:34:00,32.7,27.5,30.37,NE,48,0.0,1.0,81,0.00,,,0.00,0.0,meteohub,2013-01-08 06:34:00,
2013-01-08 01:39:00,33.1,27.5,30.37,NE,48,0.0,1.0,80,0.00,,,0.00,0.0,meteohub,2013-01-08 06:39:00,
2013-01-08 01:44:00,33.1,27.5,30.37,NE,48,0.0,1.0,80,0.00,,,0.00,0.0,meteohub,2013-01-08 06:44:00,
2013-01-08 01:49:00,32.7,27.5,30.37,NE,48,0.0,1.0,81,0.00,,,0.00,0.0,meteohub,2013-01-08 06:49:00,
2013-01-08 01:54:00,32.9,27.7,30.37,NE,48,1.0,1.0,81,0.00,,,0.00,0.0,meteohub,2013-01-08 06:54:00,
2013-01-08 02:00:00,32.9,27.7,30.37,NE,48,0.0,1.0,81,0.00,,,0.00,0.0,meteohub,2013-01-08 07:00:00,
2013-01-08 02:05:00,32.7,27.5,30.37,NE,48,0.0,1.0,81,0.00,,,0.00,0.0,meteohub,2013-01-08 07:05:00,
2013-01-08 02:10:00,32.9,27.7,30.37,NE,48,2.0,2.0,81,0.00,,,0.00,0.0,meteohub,2013-01-08 07:10:00,
2013-01-08 02:15:00,32.5,27.7,30.37,NE,48,0.0,2.0,82,0.00,,,0.00,0.0,meteohub,2013-01-08 07:15:00,
2013-01-08 02:20:00,32.7,27.9,30.37,NE,48,2.0,2.0,82,0.00,,,0.00,0.0,meteohub,2013-01-08 07:20:00,
2013-01-08 02:25:00,32.9,28.0,30.37,NE,48,0.0,2.0,82,0.00,,,0.00,0.0,meteohub,2013-01-08 07:25:00,
2013-01-08 02:30:00,32.7,27.9,30.37,NE,48,0.0,2.0,82,0.00,,,0.00,0.0,meteohub,2013-01-08 07:30:00,
2013-01-08 02:35:00,32.7,27.9,30.37,NE,48,1.0,2.0,82,0.00,,,0.00,0.0,meteohub,2013-01-08 07:35:00,
2013-01-08 02:40:00,32.5,27.7,30.37,NE,48,0.0,1.0,82,0.00,,,0.00,0.0,meteohub,2013-01-08 07:40:00,
2013-01-08 02:45:00,32.2,27.3,30.37,NE,48,0.0,1.0,82,0.00,,,0.00,0.0,meteohub,2013-01-08 07:45:00,
2013-01-08 02:50:00,31.5,27.1,30.37,NE,48,0.0,1.0,84,0.00,,,0.00,0.0,meteohub,2013-01-08 07:50:00,
2013-01-08 02:56:00,31.6,27.3,30.37,NE,48,0.0,1.0,84,0.00,,,0.00,0.0,meteohub,2013-01-08 07:56:00,
2013-01-08 03:01:00,31.8,27.3,30.37,NE,48,0.0,1.0,83,0.00,,,0.00,0.0,meteohub,2013-01-08 08:01:00,
2013-01-08 03:06:00,31.6,27.3,30.37,NE,48,2.0,2.0,84,0.00,,,0.00,0.0,meteohub,2013-01-08 08:06:00,
2013-01-08 03:11:00,31.5,27.1,30.37,NE,48,1.0,2.0,84,0.00,,,0.00,0.0,meteohub,2013-01-08 08:11:00,
2013-01-08 03:16:00,31.5,27.5,30.37,NE,48,1.0,2.0,85,0.00,,,0.00,0.0,meteohub,2013-01-08 08:16:00,
2013-01-08 03:21:00,31.5,27.1,30.37,NE,48,0.0,2.0,84,0.00,,,0.00,0.0,meteohub,2013-01-08 08:21:00,
2013-01-08 03:26:00,31.6,27.3,30.36,NE,48,0.0,2.0,84,0.00,,,0.00,0.0,meteohub,2013-01-08 08:26:00,
2013-01-08 03:31:00,31.6,27.3,30.36,NE,48,0.0,2.0,84,0.00,,,0.00,0.0,meteohub,2013-01-08 08:31:00,
2013-01-08 03:36:00,31.6,27.3,30.36,NE,48,2.0,2.0,84,0.00,,,0.00,0.0,meteohub,2013-01-08 08:36:00,
2013-01-08 03:41:00,31.3,27.0,30.36,NE,48,2.0,2.0,84,0.00,,,0.00,0.0,meteohub,2013-01-08 08:41:00,
2013-01-08 03:47:00,31.3,27.3,30.36,NE,48,2.0,3.0,85,0.00,,,0.00,0.0,meteohub,2013-01-08 08:47:00,
2013-01-08 03:52:00,31.6,27.3,30.36,NE,48,2.0,3.0,84,0.00,,,0.00,0.0,meteohub,2013-01-08 08:52:00,
2013-01-08 03:57:00,31.8,27.5,30.36,NE,48,1.0,3.0,84,0.00,,,0.00,0.0,meteohub,2013-01-08 08:57:00,
2013-01-08 04:02:00,31.8,27.3,30.36,NE,48,0.0,3.0,83,0.00,,,0.00,0.0,meteohub,2013-01-08 09:02:00,
2013-01-08 04:07:00,31.8,27.5,30.36,NE,48,1.0,3.0,84,0.00,,,0.00,0.0,meteohub,2013-01-08 09:07:00,
2013-01-08 04:12:00,32.0,27.5,30.35,NE,48,2.0,3.0,83,0.00,,,0.00,0.0,meteohub,2013-01-08 09:12:00,
2013-01-08 04:17:00,31.8,27.5,30.35,NE,48,1.0,3.0,84,0.00,,,0.00,0.0,meteohub,2013-01-08 09:17:00,
2013-01-08 04:22:00,31.6,27.3,30.35,NE,48,2.0,3.0,84,0.00,,,0.00,0.0,meteohub,2013-01-08 09:22:00,
2013-01-08 04:27:00,31.5,27.5,30.34,NE,48,2.0,3.0,85,0.00,,,0.00,0.0,meteohub,2013-01-08 09:27:00,
2013-01-08 04:32:00,31.5,27.5,30.34,NE,48,1.0,3.0,85,0.00,,,0.00,0.0,meteohub,2013-01-08 09:32:00,
2013-01-08 04:37:00,31.6,27.7,30.35,NE,48,1.0,3.0,85,0.00,,,0.00,0.0,meteohub,2013-01-08 09:37:00,
2013-01-08 04:42:00,32.0,27.7,30.34,NE,48,2.0,3.0,84,0.00,,,0.00,0.0,meteohub,2013-01-08 09:42:00,
2013-01-08 04:47:00,32.0,27.7,30.35,NE,48,1.0,3.0,84,0.00,,,0.00,0.0,meteohub,2013-01-08 09:47:00,
2013-01-08 04:52:00,32.2,27.9,30.35,NE,48,0.0,3.0,84,0.00,,,0.00,0.0,meteohub,2013-01-08 09:52:00,
2013-01-08 04:57:00,32.2,27.9,30.35,NE,48,0.0,2.0,84,0.00,,,0.00,0.0,meteohub,2013-01-08 09:57:00,
2013-01-08 05:02:00,32.2,27.9,30.35,NE,48,0.0,2.0,84,0.00,,,0.00,0.0,meteohub,2013-01-08 10:02:00,
2013-01-08 05:07:00,32.0,28.0,30.35,NE,48,0.0,2.0,85,0.00,,,0.00,0.0,meteohub,2013-01-08 10:07:00,
2013-01-08 05:12:00,31.6,27.3,30.35,NE,48,0.0,1.0,84,0.00,,,0.00,0.0,meteohub,2013-01-08 10:12:00,
2013-01-08 05:17:00,31.6,27.7,30.35,NE,48,0.0,1.0,85,0.00,,,0.00,0.0,meteohub,2013-01-08 10:17:00,
2013-01-08 05:22:00,31.5,27.5,30.35,NE,48,0.0,0.0,85,0.00,,,0.00,0.0,meteohub,2013-01-08 10:22:00,
2013-01-08 05:27:00,31.8,27.9,30.35,NE,48,0.0,0.0,85,0.00,,,0.00,0.0,meteohub,2013-01-08 10:27:00,
2013-01-08 05:32:00,32.2,27.9,30.35,NE,48,0.0,1.0,84,0.00,,,0.00,0.0,meteohub,2013-01-08 10:32:00,
2013-01-08 05:37:00,32.2,28.2,30.35,NE,48,0.0,1.0,85,0.00,,,0.00,0.0,meteohub,2013-01-08 10:37:00,
2013-01-08 05:42:00,32.2,27.9,30.35,NE,48,0.0,1.0,84,0.00,,,0.00,0.0,meteohub,2013-01-08 10:42:00,
2013-01-08 05:47:00,32.4,28.0,30.35,NE,48,0.0,1.0,84,0.00,,,0.00,0.0,meteohub,2013-01-08 10:47:00,
2013-01-08 05:52:00,32.4,28.0,30.35,NE,48,0.0,0.0,84,0.00,,,0.00,0.0,meteohub,2013-01-08 10:52:00,
2013-01-08 05:57:00,32.2,28.2,30.35,NE,48,0.0,1.0,85,0.00,,,0.00,0.0,meteohub,2013-01-08 10:57:00,
2013-01-08 06:02:00,32.5,28.6,30.35,NE,48,0.0,2.0,85,0.00,,,0.00,0.0,meteohub,2013-01-08 11:02:00,
2013-01-08 06:07:00,32.7,28.8,30.35,NE,48,1.0,2.0,85,0.00,,,0.00,0.0,meteohub,2013-01-08 11:07:00,
2013-01-08 06:12:00,32.5,28.6,30.35,NE,48,1.0,2.0,85,0.00,,,0.00,0.0,meteohub,2013-01-08 11:12:00,
2013-01-08 06:17:00,32.7,28.8,30.35,NE,48,0.0,1.0,85,0.00,,,0.00,0.0,meteohub,2013-01-08 11:17:00,
2013-01-08 06:22:00,32.7,28.8,30.35,NE,48,0.0,1.0,85,0.00,,,0.00,0.0,meteohub,2013-01-08 11:22:00,
2013-01-08 06:27:00,32.7,28.8,30.35,NE,48,0.0,1.0,85,0.00,,,0.00,0.0,meteohub,2013-01-08 11:27:00,
2013-01-08 06:32:00,32.5,28.6,30.36,NE,48,0.0,0.0,85,0.00,,,0.00,0.0,meteohub,2013-01-08 11:32:00,
2013-01-08 06:37:00,32.7,28.8,30.36,NE,48,0.0,0.0,85,0.00,,,0.00,0.0,meteohub,2013-01-08 11:37:00,
2013-01-08 06:42:00,32.7,28.8,30.36,NE,48,0.0,0.0,85,0.00,,,0.00,0.0,meteohub,2013-01-08 11:42:00,
2013-01-08 06:47:00,32.5,28.6,30.36,NE,48,0.0,0.0,85,0.00,,,0.00,0.0,meteohub,2013-01-08 11:47:00,
2013-01-08 06:52:00,32.5,28.6,30.37,NE,48,0.0,0.0,85,0.00,,,0.00,0.0,meteohub,2013-01-08 11:52:00,
2013-01-08 06:57:00,32.5,28.8,30.36,NE,48,0.0,0.0,86,0.00,,,0.00,0.0,meteohub,2013-01-08 11:57:00,
2013-01-08 07:02:00,32.7,28.8,30.36,NE,48,0.0,0.0,85,0.00,,,0.00,0.0,meteohub,2013-01-08 12:02:00,
2013-01-08 07:07:00,32.9,28.9,30.37,NE,48,0.0,0.0,85,0.00,,,0.00,0.0,meteohub,2013-01-08 12:07:00,
2013-01-08 07:12:00,32.9,28.9,30.37,NE,48,0.0,1.0,85,0.00,,,0.00,0.0,meteohub,2013-01-08 12:12:00,
2013-01-08 07:17:00,33.1,29.1,30.37,NE,48,1.0,1.0,85,0.00,,,0.00,0.0,meteohub,2013-01-08 12:17:00,
2013-01-08 07:22:00,33.4,29.5,30.37,NE,48,1.0,2.0,85,0.00,,,0.00,0.0,meteohub,2013-01-08 12:22:00,
2013-01-08 07:27:00,33.6,29.7,30.37,NE,48,1.0,2.0,85,0.00,,,0.00,0.0,meteohub,2013-01-08 12:27:00,
2013-01-08 07:32:00,34.3,27.5,30.37,North,11,2.0,4.0,76,0.00,,,0.00,0.0,meteohub,2013-01-08 12:32:00,
2013-01-08 07:37:00,35.4,28.0,30.36,NNW,348,1.0,4.0,74,0.00,,,0.00,0.0,meteohub,2013-01-08 12:37:00,
2013-01-08 07:42:00,36.7,29.8,30.36,NNW,348,0.0,4.0,76,0.00,,,0.00,0.0,meteohub,2013-01-08 12:42:00,
2013-01-08 07:47:00,37.0,30.7,30.37,NNW,348,0.0,4.0,78,0.00,,,0.00,5.0,meteohub,2013-01-08 12:47:00,
2013-01-08 07:52:00,37.4,31.8,30.38,NNW,340,0.0,4.0,80,0.00,,,0.00,7.0,meteohub,2013-01-08 12:52:00,
2013-01-08 07:57:00,38.1,32.5,30.38,NNW,341,2.0,5.0,80,0.00,,,0.00,9.0,meteohub,2013-01-08 12:57:00,
2013-01-08 08:02:00,38.5,32.5,30.38,NNW,339,2.0,5.0,79,0.00,,,0.00,12.0,meteohub,2013-01-08 13:02:00,
2013-01-08 08:07:00,38.7,32.7,30.38,NNW,339,0.0,3.0,79,0.00,,,0.00,18.0,meteohub,2013-01-08 13:07:00,
2013-01-08 08:12:00,38.8,33.3,30.38,NNW,337,0.0,3.0,80,0.00,,,0.00,23.0,meteohub,2013-01-08 13:12:00,
2013-01-08 08:17:00,38.8,33.8,30.38,NNW,337,1.0,3.0,82,0.00,,,0.00,32.0,meteohub,2013-01-08 13:17:00,
2013-01-08 08:22:00,39.0,34.0,30.39,NNW,337,1.0,3.0,82,0.00,,,0.00,33.0,meteohub,2013-01-08 13:22:00,
2013-01-08 08:27:00,39.0,33.6,30.39,NNW,337,0.0,2.0,81,0.00,,,0.00,33.0,meteohub,2013-01-08 13:27:00,
2013-01-08 08:32:00,38.8,34.2,30.39,NNW,337,0.0,2.0,83,0.00,,,0.00,42.0,meteohub,2013-01-08 13:32:00,
2013-01-08 08:37:00,39.2,34.5,30.39,NNW,337,0.0,3.0,83,0.00,,,0.00,39.0,meteohub,2013-01-08 13:37:00,
2013-01-08 08:42:00,39.6,35.1,30.40,NNW,337,0.0,3.0,84,0.00,,,0.00,42.0,meteohub,2013-01-08 13:42:00,
2013-01-08 08:47:00,40.1,35.4,30.40,NNW,337,0.0,1.0,83,0.00,,,0.00,51.0,meteohub,2013-01-08 13:47:00,
2013-01-08 08:52:00,40.6,36.5,30.40,NNW,337,1.0,1.0,85,0.00,,,0.00,65.0,meteohub,2013-01-08 13:52:00,
2013-01-08 08:57:00,41.4,36.5,30.40,NNW,337,0.0,2.0,83,0.00,,,0.00,84.0,meteohub,2013-01-08 13:57:00,
2013-01-08 09:02:00,41.9,37.0,30.40,NNW,335,1.0,2.0,83,0.00,,,0.00,88.0,meteohub,2013-01-08 14:02:00,
2013-01-08 09:07:00,42.4,37.6,30.40,NNW,333,0.0,3.0,83,0.00,,,0.00,102.0,meteohub,2013-01-08 14:07:00,
2013-01-08 09:12:00,43.0,37.6,30.40,West,271,0.0,3.0,81,0.00,,,0.00,113.0,meteohub,2013-01-08 14:12:00,
2013-01-08 09:17:00,43.0,37.9,30.40,West,261,0.0,3.0,82,0.00,,,0.00,114.0,meteohub,2013-01-08 14:17:00,
2013-01-08 09:22:00,43.2,38.1,30.40,West,261,1.0,3.0,82,0.00,,,0.00,98.0,meteohub,2013-01-08 14:22:00,
2013-01-08 09:27:00,43.2,37.8,30.40,West,261,0.0,2.0,81,0.00,,,0.00,69.0,meteohub,2013-01-08 14:27:00,
2013-01-08 09:32:00,43.5,38.1,30.40,West,261,0.0,2.0,81,0.00,,,0.00,86.0,meteohub,2013-01-08 14:32:00,
2013-01-08 09:37:00,43.5,38.1,30.40,West,261,0.0,2.0,81,0.00,,,0.00,144.0,meteohub,2013-01-08 14:37:00,
2013-01-08 09:42:00,43.5,38.1,30.41,West,261,1.0,2.0,81,0.00,,,0.00,120.0,meteohub,2013-01-08 14:42:00,
2013-01-08 09:47:00,43.3,36.9,30.41,West,261,0.0,2.0,78,0.00,,,0.00,83.0,meteohub,2013-01-08 14:47:00,
2013-01-08 09:52:00,43.5,38.1,30.41,West,261,0.0,2.0,81,0.00,,,0.00,83.0,meteohub,2013-01-08 14:52:00,
2013-01-08 09:57:00,44.1,37.9,30.42,West,261,0.0,2.0,79,0.00,,,0.00,91.0,meteohub,2013-01-08 14:57:00,
2013-01-08 10:02:00,44.1,38.3,30.41,West,261,0.0,2.0,80,0.00,,,0.00,93.0,meteohub,2013-01-08 15:02:00,
2013-01-08 10:07:00,43.9,37.8,30.41,West,261,1.0,2.0,79,0.00,,,0.00,139.0,meteohub,2013-01-08 15:07:00,
2013-01-08 10:12:00,43.3,36.3,30.42,West,261,0.0,2.0,76,0.00,,,0.00,113.0,meteohub,2013-01-08 15:12:00,
2013-01-08 10:17:00,43.7,37.6,30.42,West,261,0.0,2.0,79,0.00,,,0.00,153.0,meteohub,2013-01-08 15:17:00,
2013-01-08 10:22:00,45.1,39.7,30.42,West,261,0.0,2.0,81,0.00,,,0.00,114.0,meteohub,2013-01-08 15:22:00,
2013-01-08 10:27:00,45.3,39.2,30.42,West,261,0.0,2.0,79,0.00,,,0.00,113.0,meteohub,2013-01-08 15:27:00,
2013-01-08 10:32:00,45.5,39.4,30.42,West,261,0.0,2.0,79,0.00,,,0.00,104.0,meteohub,2013-01-08 15:32:00,
2013-01-08 10:37:00,45.1,39.0,30.42,West,261,0.0,2.0,79,0.00,,,0.00,160.0,meteohub,2013-01-08 15:37:00,
2013-01-08 10:42:00,45.3,38.8,30.42,SSE,151,2.0,2.0,78,0.00,,,0.00,207.0,meteohub,2013-01-08 15:42:00,
2013-01-08 10:47:00,45.1,36.3,30.42,SSW,192,0.0,3.0,71,0.00,,,0.00,290.0,meteohub,2013-01-08 15:47:00,
2013-01-08 10:52:00,44.6,35.8,30.42,SSW,192,2.0,3.0,71,0.00,,,0.00,183.0,meteohub,2013-01-08 15:52:00,
2013-01-08 10:57:00,43.9,35.8,30.42,SSW,193,1.0,2.0,73,0.00,,,0.00,163.0,meteohub,2013-01-08 15:57:00,
2013-01-08 11:02:00,44.2,35.8,30.42,SSW,194,3.0,3.0,72,0.00,,,0.00,185.0,meteohub,2013-01-08 16:02:00,
2013-01-08 11:07:00,43.5,35.1,30.42,SSW,194,0.0,3.0,72,0.00,,,0.00,211.0,meteohub,2013-01-08 16:07:00,
2013-01-08 11:12:00,44.2,36.1,30.42,SSW,194,2.0,3.0,73,0.00,,,0.00,209.0,meteohub,2013-01-08 16:12:00,
2013-01-08 11:17:00,43.9,35.1,30.42,SSW,213,1.0,3.0,71,0.00,,,0.00,130.0,meteohub,2013-01-08 16:17:00,
2013-01-08 11:22:00,43.3,34.9,30.42,SSW,213,0.0,2.0,72,0.00,,,0.00,216.0,meteohub,2013-01-08 16:22:00,
2013-01-08 11:27:00,45.1,37.8,30.41,SSW,193,1.0,2.0,75,0.00,,,0.00,408.0,meteohub,2013-01-08 16:27:00,
2013-01-08 11:32:00,45.9,38.1,30.41,SE,135,2.0,4.0,74,0.00,,,0.00,443.0,meteohub,2013-01-08 16:32:00,
2013-01-08 11:37:00,46.6,38.7,30.40,SW,230,2.0,4.0,74,0.00,,,0.00,304.0,meteohub,2013-01-08 16:37:00,
2013-01-08 11:42:00,47.8,39.9,30.40,West,267,1.0,4.0,74,0.00,,,0.00,418.0,meteohub,2013-01-08 16:42:00,
2013-01-08 11:47:00,47.3,36.1,30.40,South,169,2.0,4.0,65,0.00,,,0.00,290.0,meteohub,2013-01-08 16:47:00,
2013-01-08 11:52:00,47.7,37.2,30.40,SE,133,1.0,4.0,67,0.00,,,0.00,434.0,meteohub,2013-01-08 16:52:00,
2013-01-08 11:57:00,46.9,36.1,30.40,East,89,1.0,4.0,66,0.00,,,0.00,287.0,meteohub,2013-01-08 16:57:00,
2013-01-08 12:02:00,46.8,36.3,30.40,South,183,1.0,4.0,67,0.00,,,0.00,202.0,meteohub,2013-01-08 17:02:00,
2013-01-08 12:07:00,45.9,36.3,30.40,SSE,162,3.0,4.0,69,0.00,,,0.00,225.0,meteohub,2013-01-08 17:07:00,
2013-01-08 12:12:00,45.3,35.8,30.40,SSE,165,1.0,4.0,69,0.00,,,0.00,292.0,meteohub,2013-01-08 17:12:00,
2013-01-08 12:17:00,45.9,37.4,30.39,South,177,1.0,3.0,72,0.00,,,0.00,211.0,meteohub,2013-01-08 17:17:00,
2013-01-08 12:22:00,45.7,35.1,30.39,SSE,164,2.0,3.0,66,0.00,,,0.00,232.0,meteohub,2013-01-08 17:22:00,
2013-01-08 12:27:00,45.0,34.7,30.39,SSE,160,0.0,4.0,67,0.00,,,0.00,262.0,meteohub,2013-01-08 17:27:00,
2013-01-08 12:32:00,45.1,35.2,30.39,SSE,163,1.0,4.0,68,0.00,,,0.00,167.0,meteohub,2013-01-08 17:32:00,
2013-01-08 12:37:00,44.6,35.4,30.39,SSE,148,1.0,3.0,70,0.00,,,0.00,163.0,meteohub,2013-01-08 17:37:00,
2013-01-08 12:42:00,44.2,35.8,30.38,SE,126,0.0,4.0,72,0.00,,,0.00,230.0,meteohub,2013-01-08 17:42:00,
2013-01-08 12:47:00,45.0,36.9,30.38,ESE,104,3.0,4.0,73,0.00,,,0.00,185.0,meteohub,2013-01-08 17:47:00,
2013-01-08 12:52:00,45.0,36.1,30.38,SE,135,2.0,4.0,71,0.00,,,0.00,141.0,meteohub,2013-01-08 17:52:00,
2013-01-08 12:57:00,45.0,37.6,30.38,SE,143,2.0,4.0,75,0.00,,,0.00,276.0,meteohub,2013-01-08 17:57:00,
2013-01-08 13:02:00,45.9,37.4,30.38,SSW,206,0.0,3.0,72,0.00,,,0.00,287.0,meteohub,2013-01-08 18:02:00,
2013-01-08 13:07:00,46.4,37.6,30.38,ESE,111,4.0,4.0,71,0.00,,,0.00,330.0,meteohub,2013-01-08 18:07:00,
2013-01-08 13:12:00,46.8,37.2,30.38,ESE,112,2.0,5.0,69,0.00,,,0.00,225.0,meteohub,2013-01-08 18:12:00,
2013-01-08 13:17:00,45.7,36.5,30.37,SE,144,0.0,5.0,70,0.00,,,0.00,234.0,meteohub,2013-01-08 18:17:00,
2013-01-08 13:22:00,46.4,36.9,30.37,SE,131,2.0,5.0,69,0.00,,,0.00,292.0,meteohub,2013-01-08 18:22:00,
2013-01-08 13:27:00,46.2,36.7,30.37,South,169,1.0,4.0,69,0.00,,,0.00,304.0,meteohub,2013-01-08 18:27:00,
2013-01-08 13:32:00,46.6,37.8,30.37,SE,136,2.0,4.0,71,0.00,,,0.00,271.0,meteohub,2013-01-08 18:32:00,
2013-01-08 13:37:00,46.9,37.6,30.37,SSW,196,2.0,4.0,70,0.00,,,0.00,388.0,meteohub,2013-01-08 18:37:00,
2013-01-08 13:42:00,47.3,37.6,30.36,SE,131,0.0,4.0,69,0.00,,,0.00,236.0,meteohub,2013-01-08 18:42:00,
2013-01-08 13:47:00,47.1,37.8,30.35,South,178,0.0,4.0,70,0.00,,,0.00,374.0,meteohub,2013-01-08 18:47:00,
2013-01-08 13:52:00,47.5,38.1,30.35,South,172,0.0,5.0,70,0.00,,,0.00,406.0,meteohub,2013-01-08 18:52:00,
2013-01-08 13:57:00,46.9,37.2,30.35,SSE,153,4.0,5.0,69,0.00,,,0.00,381.0,meteohub,2013-01-08 18:57:00,
2013-01-08 14:02:00,45.9,38.1,30.35,SSE,164,4.0,5.0,74,0.00,,,0.00,211.0,meteohub,2013-01-08 19:02:00,
2013-01-08 14:07:00,46.8,38.3,30.35,SSW,199,2.0,4.0,72,0.00,,,0.00,253.0,meteohub,2013-01-08 19:07:00,
2013-01-08 14:12:00,46.9,38.3,30.35,South,178,2.0,4.0,72,0.00,,,0.00,209.0,meteohub,2013-01-08 19:12:00,
2013-01-08 14:17:00,46.6,38.5,30.36,SSW,198,1.0,4.0,73,0.00,,,0.00,148.0,meteohub,2013-01-08 19:17:00,
2013-01-08 14:22:00,46.2,38.1,30.35,SE,140,2.0,4.0,73,0.00,,,0.00,265.0,meteohub,2013-01-08 19:22:00,
2013-01-08 14:27:00,45.7,37.6,30.35,SE,144,3.0,5.0,73,0.00,,,0.00,163.0,meteohub,2013-01-08 19:27:00,
2013-01-08 14:32:00,46.2,38.1,30.35,WSW,246,3.0,5.0,73,0.00,,,0.00,199.0,meteohub,2013-01-08 19:32:00,
2013-01-08 14:37:00,46.6,39.0,30.35,SW,222,3.0,5.0,75,0.00,,,0.00,225.0,meteohub,2013-01-08 19:37:00,
2013-01-08 14:42:00,47.8,39.2,30.35,SW,218,1.0,5.0,72,0.00,,,0.00,183.0,meteohub,2013-01-08 19:42:00,
2013-01-08 14:47:00,47.5,39.6,30.35,SW,229,1.0,5.0,74,0.00,,,0.00,213.0,meteohub,2013-01-08 19:47:00,
2013-01-08 14:52:00,47.8,39.9,30.35,SSW,202,1.0,4.0,74,0.00,,,0.00,446.0,meteohub,2013-01-08 19:52:00,
2013-01-08 14:57:00,49.1,39.4,30.35,SW,225,1.0,4.0,69,0.00,,,0.00,406.0,meteohub,2013-01-08 19:57:00,
2013-01-08 15:02:00,48.7,39.4,30.35,SSE,152,3.0,4.0,70,0.00,,,0.00,415.0,meteohub,2013-01-08 20:02:00,
2013-01-08 15:07:00,48.6,38.8,30.35,SSE,157,1.0,4.0,69,0.00,,,0.00,404.0,meteohub,2013-01-08 20:07:00,
2013-01-08 15:12:00,49.3,39.2,30.35,South,175,3.0,4.0,68,0.00,,,0.00,357.0,meteohub,2013-01-08 20:12:00,
2013-01-08 15:17:00,49.5,39.7,30.35,South,180,2.0,6.0,69,0.00,,,0.00,378.0,meteohub,2013-01-08 20:17:00,
2013-01-08 15:22:00,50.2,40.8,30.35,South,188,1.0,6.0,70,0.00,,,0.00,257.0,meteohub,2013-01-08 20:22:00,
2013-01-08 15:27:00,49.5,40.1,30.35,SW,220,2.0,6.0,70,0.00,,,0.00,151.0,meteohub,2013-01-08 20:27:00,
2013-01-08 15:32:00,48.6,39.6,30.36,SE,139,2.0,6.0,71,0.00,,,0.00,171.0,meteohub,2013-01-08 20:32:00,
2013-01-08 15:37:00,47.8,38.5,30.36,West,272,2.0,6.0,70,0.00,,,0.00,151.0,meteohub,2013-01-08 20:37:00,
2013-01-08 15:42:00,47.7,39.0,30.36,SSW,206,2.0,7.0,72,0.00,,,0.00,156.0,meteohub,2013-01-08 20:42:00,
2013-01-08 15:47:00,46.8,37.9,30.37,SSW,202,0.0,7.0,71,0.00,,,0.00,163.0,meteohub,2013-01-08 20:47:00,
2013-01-08 15:52:00,46.6,38.1,30.36,SSW,208,3.0,7.0,72,0.00,,,0.00,165.0,meteohub,2013-01-08 20:52:00,
2013-01-08 15:57:00,46.2,38.1,30.36,South,184,1.0,6.0,73,0.00,,,0.00,91.0,meteohub,2013-01-08 20:57:00,
2013-01-08 16:02:00,46.2,38.5,30.36,SSE,159,2.0,6.0,74,0.00,,,0.00,116.0,meteohub,2013-01-08 21:02:00,
2013-01-08 16:07:00,46.8,38.8,30.35,WSW,238,0.0,6.0,74,0.00,,,0.00,107.0,meteohub,2013-01-08 21:07:00,
2013-01-08 16:12:00,46.9,39.0,30.36,SSW,205,0.0,3.0,74,0.00,,,0.00,128.0,meteohub,2013-01-08 21:12:00,
2013-01-08 16:17:00,47.7,39.7,30.36,WSW,240,0.0,3.0,74,0.00,,,0.00,127.0,meteohub,2013-01-08 21:17:00,
2013-01-08 16:22:00,48.7,40.8,30.35,SW,224,2.0,4.0,74,0.00,,,0.00,120.0,meteohub,2013-01-08 21:22:00,
2013-01-08 16:27:00,49.6,41.7,30.35,SW,225,2.0,4.0,74,0.00,,,0.00,149.0,meteohub,2013-01-08 21:27:00,
2013-01-08 16:32:00,49.8,41.9,30.35,SW,229,1.0,5.0,74,0.00,,,0.00,107.0,meteohub,2013-01-08 21:32:00,
2013-01-08 16:37:00,50.2,41.9,30.35,West,273,1.0,7.0,73,0.00,,,0.00,58.0,meteohub,2013-01-08 21:37:00,
2013-01-08 16:42:00,50.4,42.1,30.35,WSW,252,2.0,7.0,73,0.00,,,0.00,95.0,meteohub,2013-01-08 21:42:00,
2013-01-08 16:47:00,50.5,42.3,30.35,West,264,0.0,4.0,73,0.00,,,0.00,67.0,meteohub,2013-01-08 21:47:00,
2013-01-08 16:52:00,50.4,42.1,30.36,SSW,192,2.0,6.0,73,0.00,,,0.00,54.0,meteohub,2013-01-08 21:52:00,
2013-01-08 16:57:00,49.1,40.5,30.35,SSW,208,0.0,6.0,72,0.00,,,0.00,47.0,meteohub,2013-01-08 21:57:00,
2013-01-08 17:02:00,48.4,40.1,30.36,SSW,208,2.0,5.0,73,0.00,,,0.00,33.0,meteohub,2013-01-08 22:02:00,
2013-01-08 17:07:00,48.2,40.3,30.35,SSW,208,1.0,4.0,74,0.00,,,0.00,25.0,meteohub,2013-01-08 22:07:00,
2013-01-08 17:12:00,47.7,40.1,30.35,SSW,208,1.0,2.0,75,0.00,,,0.00,23.0,meteohub,2013-01-08 22:12:00,
2013-01-08 17:17:00,47.7,40.5,30.35,SSW,208,0.0,2.0,76,0.00,,,0.00,16.0,meteohub,2013-01-08 22:17:00,
2013-01-08 17:22:00,47.3,40.1,30.35,SSW,208,0.0,2.0,76,0.00,,,0.00,12.0,meteohub,2013-01-08 22:22:00,
2013-01-08 17:27:00,45.9,37.8,30.36,ESE,122,1.0,2.0,73,0.00,,,0.00,9.0,meteohub,2013-01-08 22:27:00,
2013-01-08 17:32:00,45.3,37.6,30.37,ESE,122,0.0,4.0,74,0.00,,,0.00,5.0,meteohub,2013-01-08 22:32:00,
2013-01-08 17:37:00,44.6,37.2,30.37,ESE,122,1.0,4.0,75,0.00,,,0.00,0.0,meteohub,2013-01-08 22:37:00,
2013-01-08 17:42:00,44.4,37.6,30.37,ESE,122,0.0,3.0,77,0.00,,,0.00,0.0,meteohub,2013-01-08 22:42:00,
2013-01-08 17:47:00,44.4,38.3,30.36,ESE,108,1.0,2.0,79,0.00,,,0.00,0.0,meteohub,2013-01-08 22:47:00,
2013-01-08 17:52:00,44.2,38.8,30.36,ESE,108,0.0,3.0,81,0.00,,,0.00,0.0,meteohub,2013-01-08 22:52:00,
2013-01-08 17:57:00,44.2,39.0,30.36,ESE,108,1.0,3.0,82,0.00,,,0.00,0.0,meteohub,2013-01-08 22:57:00,
2013-01-08 18:02:00,44.4,39.9,30.36,ESE,108,0.0,3.0,84,0.00,,,0.00,0.0,meteohub,2013-01-08 23:02:00,
2013-01-08 18:07:00,45.0,40.5,30.37,ESE,108,0.0,2.0,84,0.00,,,0.00,0.0,meteohub,2013-01-08 23:07:00,
2013-01-08 18:12:00,44.8,40.3,30.37,ESE,108,0.0,2.0,84,0.00,,,0.00,0.0,meteohub,2013-01-08 23:12:00,
2013-01-08 18:17:00,43.9,39.7,30.37,ESE,108,0.0,1.0,85,0.00,,,0.00,0.0,meteohub,2013-01-08 23:17:00,
2013-01-08 18:22:00,43.7,39.7,30.38,ESE,108,0.0,1.0,86,0.00,,,0.00,0.0,meteohub,2013-01-08 23:22:00,
2013-01-08 18:27:00,43.9,40.3,30.38,ESE,108,0.0,2.0,87,0.00,,,0.00,0.0,meteohub,2013-01-08 23:27:00,
2013-01-08 18:32:00,44.4,40.8,30.38,ESE,108,1.0,2.0,87,0.00,,,0.00,0.0,meteohub,2013-01-08 23:32:00,
2013-01-08 18:37:00,44.4,40.8,30.37,ESE,108,1.0,2.0,87,0.00,,,0.00,0.0,meteohub,2013-01-08 23:37:00,
2013-01-08 18:42:00,45.0,41.4,30.37,ESE,108,0.0,2.0,87,0.00,,,0.00,0.0,meteohub,2013-01-08 23:42:00,
2013-01-08 18:47:00,45.3,41.4,30.37,ESE,108,0.0,2.0,86,0.00,,,0.00,0.0,meteohub,2013-01-08 23:47:00,
2013-01-08 18:52:00,45.7,41.4,30.37,ESE,108,0.0,2.0,85,0.00,,,0.00,0.0,meteohub,2013-01-08 23:52:00,
2013-01-08 18:57:00,45.9,41.5,30.38,ESE,108,0.0,1.0,85,0.00,,,0.00,0.0,meteohub,2013-01-08 23:57:00,
2013-01-08 19:02:00,45.3,41.4,30.38,ESE,108,2.0,2.0,86,0.00,,,0.00,0.0,meteohub,2013-01-09 00:02:00,
2013-01-08 19:07:00,45.7,41.4,30.38,ESE,108,0.0,2.0,85,0.00,,,0.00,0.0,meteohub,2013-01-09 00:07:00,
2013-01-08 19:12:00,45.9,41.4,30.38,ESE,108,0.0,2.0,84,0.00,,,0.00,0.0,meteohub,2013-01-09 00:12:00,
2013-01-08 19:17:00,46.0,41.7,30.38,ESE,108,0.0,2.0,85,0.00,,,0.00,0.0,meteohub,2013-01-09 00:17:00,
2013-01-08 19:23:00,46.9,42.6,30.38,ESE,108,0.0,2.0,85,0.00,,,0.00,0.0,meteohub,2013-01-09 00:23:00,
2013-01-08 19:28:00,46.8,41.9,30.38,ESE,108,0.0,2.0,83,0.00,,,0.00,0.0,meteohub,2013-01-09 00:28:00,
2013-01-08 19:33:00,46.4,41.9,30.38,ESE,108,0.0,2.0,84,0.00,,,0.00,0.0,meteohub,2013-01-09 00:33:00,
2013-01-08 19:38:00,46.6,42.1,30.38,ESE,108,0.0,0.0,84,0.00,,,0.00,0.0,meteohub,2013-01-09 00:38:00,
2013-01-08 19:43:00,46.6,42.1,30.39,ESE,108,1.0,1.0,84,0.00,,,0.00,0.0,meteohub,2013-01-09 00:43:00,
2013-01-08 19:48:00,47.1,42.8,30.39,ESE,108,0.0,2.0,85,0.00,,,0.00,0.0,meteohub,2013-01-09 00:48:00,
2013-01-08 19:53:00,47.8,43.5,30.40,WSW,237,2.0,2.0,85,0.00,,,0.00,0.0,meteohub,2013-01-09 00:53:00,
2013-01-08 19:58:00,48.4,43.7,30.39,NNW,342,1.0,4.0,84,0.00,,,0.00,0.0,meteohub,2013-01-09 00:58:00,
2013-01-08 20:03:00,48.0,43.7,30.39,NNW,342,0.0,4.0,85,0.00,,,0.00,0.0,meteohub,2013-01-09 01:03:00,
2013-01-08 20:08:00,48.4,43.7,30.39,NNW,342,1.0,4.0,84,0.00,,,0.00,0.0,meteohub,2013-01-09 01:08:00,
2013-01-08 20:13:00,48.4,43.7,30.38,NNE,21,0.0,3.0,84,0.00,,,0.00,0.0,meteohub,2013-01-09 01:13:00,
2013-01-08 20:18:00,47.1,42.3,30.38,SSE,155,0.0,4.0,83,0.00,,,0.00,0.0,meteohub,2013-01-09 01:18:00,
2013-01-08 20:24:00,46.2,41.9,30.38,SSE,155,0.0,4.0,85,0.00,,,0.00,0.0,meteohub,2013-01-09 01:24:00,
2013-01-08 20:29:00,46.0,41.7,30.38,ESE,107,1.0,4.0,85,0.00,,,0.00,0.0,meteohub,2013-01-09 01:29:00,
2013-01-08 20:34:00,45.9,41.9,30.38,ESE,107,1.0,3.0,86,0.00,,,0.00,0.0,meteohub,2013-01-09 01:34:00,
2013-01-08 20:39:00,45.9,41.9,30.39,ESE,107,1.0,3.0,86,0.00,,,0.00,0.0,meteohub,2013-01-09 01:39:00,
2013-01-08 20:44:00,45.9,42.3,30.39,ESE,107,1.0,3.0,87,0.00,,,0.00,0.0,meteohub,2013-01-09 01:44:00,
2013-01-08 20:49:00,45.9,42.3,30.38,ESE,107,0.0,2.0,87,0.00,,,0.00,0.0,meteohub,2013-01-09 01:49:00,
2013-01-08 20:54:00,45.9,42.4,30.38,ESE,107,0.0,2.0,88,0.00,,,0.00,0.0,meteohub,2013-01-09 01:54:00,
2013-01-08 20:59:00,46.0,43.3,30.38,ESE,113,0.0,2.0,90,0.00,,,0.00,0.0,meteohub,2013-01-09 01:59:00,
2013-01-08 21:04:00,46.2,43.7,30.38,ESE,113,0.0,3.0,91,0.00,,,0.00,0.0,meteohub,2013-01-09 02:04:00,
2013-01-08 21:09:00,46.2,43.5,30.38,ESE,113,0.0,3.0,90,0.00,,,0.00,0.0,meteohub,2013-01-09 02:09:00,
2013-01-08 21:14:00,46.2,43.5,30.38,ESE,113,1.0,3.0,90,0.00,,,0.00,0.0,meteohub,2013-01-09 02:14:00,
2013-01-08 21:19:00,46.2,43.5,30.39,ESE,113,1.0,2.0,90,0.00,,,0.00,0.0,meteohub,2013-01-09 02:19:00,
2013-01-08 21:24:00,46.2,43.5,30.39,ESE,113,0.0,1.0,90,0.00,,,0.00,0.0,meteohub,2013-01-09 02:24:00,
2013-01-08 21:29:00,46.2,43.5,30.39,ESE,113,1.0,1.0,90,0.00,,,0.00,0.0,meteohub,2013-01-09 02:29:00,
2013-01-08 21:35:00,46.4,43.7,30.39,ESE,113,0.0,1.0,90,0.00,,,0.00,0.0,meteohub,2013-01-09 02:35:00,
2013-01-08 21:40:00,46.8,44.2,30.39,ESE,113,0.0,1.0,91,0.00,,,0.00,0.0,meteohub,2013-01-09 02:40:00,
2013-01-08 21:45:00,46.8,44.1,30.39,ESE,113,0.0,2.0,90,0.00,,,0.00,0.0,meteohub,2013-01-09 02:45:00,
2013-01-08 21:50:00,46.8,44.1,30.40,ESE,113,0.0,2.0,90,0.00,,,0.00,0.0,meteohub,2013-01-09 02:50:00,
2013-01-08 21:55:00,47.1,44.6,30.40,ESE,113,0.0,2.0,91,0.00,,,0.00,0.0,meteohub,2013-01-09 02:55:00,
2013-01-08 22:00:00,47.1,45.0,30.40,ESE,113,0.0,2.0,92,0.00,,,0.00,0.0,meteohub,2013-01-09 03:00:00,
2013-01-08 22:05:00,47.1,45.0,30.39,ESE,113,0.0,2.0,92,0.00,,,0.00,0.0,meteohub,2013-01-09 03:05:00,
2013-01-08 22:10:00,46.9,44.8,30.39,ESE,113,0.0,2.0,92,0.00,,,0.00,0.0,meteohub,2013-01-09 03:10:00,
2013-01-08 22:15:00,46.9,44.8,30.39,ESE,113,0.0,0.0,92,0.00,,,0.00,0.0,meteohub,2013-01-09 03:15:00,
2013-01-08 22:20:00,46.9,44.8,30.39,ESE,113,0.0,0.0,92,0.00,,,0.00,0.0,meteohub,2013-01-09 03:20:00,
2013-01-08 22:25:00,46.9,44.8,30.39,ESE,113,0.0,0.0,92,0.00,,,0.00,0.0,meteohub,2013-01-09 03:25:00,
2013-01-08 22:30:00,46.9,44.8,30.39,ESE,113,0.0,0.0,92,0.00,,,0.00,0.0,meteohub,2013-01-09 03:30:00,
2013-01-08 22:35:00,46.9,44.8,30.39,ESE,113,0.0,0.0,92,0.00,,,0.00,0.0,meteohub,2013-01-09 03:35:00,
2013-01-08 22:40:00,46.8,44.6,30.39,ESE,113,0.0,0.0,92,0.00,,,0.00,0.0,meteohub,2013-01-09 03:40:00,
2013-01-08 22:46:00,46.9,44.8,30.40,ESE,113,0.0,0.0,92,0.00,,,0.00,0.0,meteohub,2013-01-09 03:46:00,
2013-01-08 22:51:00,47.1,45.1,30.40,ESE,113,0.0,1.0,93,0.00,,,0.00,0.0,meteohub,2013-01-09 03:51:00,
2013-01-08 22:56:00,47.3,45.3,30.40,ESE,113,0.0,1.0,93,0.00,,,0.00,0.0,meteohub,2013-01-09 03:56:00,
2013-01-08 23:01:00,47.3,45.3,30.39,ESE,113,0.0,1.0,93,0.00,,,0.00,0.0,meteohub,2013-01-09 04:01:00,
2013-01-08 23:06:00,47.5,45.9,30.39,ESE,113,0.0,1.0,94,0.00,,,0.00,0.0,meteohub,2013-01-09 04:06:00,
2013-01-08 23:11:00,47.3,45.3,30.39,ESE,113,0.0,1.0,93,0.00,,,0.00,0.0,meteohub,2013-01-09 04:11:00,
2013-01-08 23:16:00,47.5,45.9,30.39,ESE,113,0.0,1.0,94,0.00,,,0.00,0.0,meteohub,2013-01-09 04:16:00,
2013-01-08 23:21:00,47.7,46.0,30.38,ESE,113,1.0,1.0,94,0.00,,,0.00,0.0,meteohub,2013-01-09 04:21:00,
2013-01-08 23:26:00,47.7,46.0,30.38,ESE,113,0.0,1.0,94,0.00,,,0.00,0.0,meteohub,2013-01-09 04:26:00,
2013-01-08 23:31:00,47.7,46.0,30.38,ESE,113,0.0,1.0,94,0.00,,,0.00,0.0,meteohub,2013-01-09 04:31:00,
2013-01-08 23:36:00,47.7,46.2,30.38,ESE,113,0.0,1.0,95,0.00,,,0.00,0.0,meteohub,2013-01-09 04:36:00,
2013-01-08 23:41:00,47.8,46.4,30.38,ESE,113,0.0,1.0,95,0.00,,,0.00,0.0,meteohub,2013-01-09 04:41:00,
2013-01-08 23:46:00,47.8,46.4,30.38,ESE,113,0.0,1.0,95,0.00,,,0.00,0.0,meteohub,2013-01-09 04:46:00,
2013-01-08 23:51:00,47.7,46.2,30.38,ESE,113,0.0,1.0,95,0.00,,,0.00,0.0,meteohub,2013-01-09 04:51:00,
2013-01-08 23:56:00,47.7,46.6,30.38,ESE,113,0.0,1.0,96,0.00,,,0.00,0.0,meteohub,2013-01-09 04:56:00,